sat.trackr.live / text

‹ back to catalog

STARLINK-33706

NORAD 63461 · 2025-070B

PAYLOAD ACTIVE UNKNOWN

§ Identity

Operator
Country
US
Launch date
2025-04-06
Launch site
AFETR
Launch vehicle
Mass (kg)
RCS (m²)

Purposes: comms

External: N2YO · Heavens-Above · Gunter

§ Orbital elements

Epoch: 2026-09-19T07:20:18.000960Z

Period
94.27 min
Inclination
42.9977°
Eccentricity
0.0001306
Mean motion
15.27583150 rev/d
Perigee alt
482.1 km
Apogee alt
483.9 km
Semi-major
6,861.2 km
B*
5.0784e-4
RAAN
246.6925°
Arg perigee
261.3283°
Mean anomaly
98.7421°
Rev number
8,258

§ Raw data

STARLINK-337061 63461U 25070B   26262.30576390  .00013740  00000+0  50784-3 0  99962 63461  42.9977 246.6925 0001306 261.3283  98.7421 15.27583150 82580

JSON: /api/v1/satellites/63461 · /tle

For live sub-satellite position, see the globe view (requires WebGL).

§ Visibility from observer

Set your observer location to see the next 7 days of passes ≥ 10°. The values pass through the URL so the page stays shareable.

No JS? Fill the form by hand. The geolocation button needs JavaScript.